Location: Baix
(44.7118°N, 4.7648°E)
Time: 10:48:03
(UTC+00:00)

Vanguard 2 Rocket - Pass Details

Date: 01 December 2020
Orbit: 554 x 3325 km, 32.9° (Epoch: 21 January)

Event Time Altitude Azimuth Distance (km) Brightness Sun altitude
Rises 04:16:40 0° 196° (SSW) 6,379 11.1 -28.0°
Reaches altitude 10° 04:21:56 10° 183° (S) 5,724 11.0 -27.1°
Maximum altitude 04:35:00 24° 138° (SE) 5,104 11.1 -24.8°
Drops below altitude 10° 04:48:51 10° 94° (E) 6,163 12.2 -22.3°
Sets 04:54:43 0° 83° (E) 6,966 12.7 -21.3°
